Showing default

BUGSAT 1, 40014

Orbit data source: Space-Track

BUGSAT 1, 40014 is a payload satellite owned by Satellogic SA (AR) in SSO that was launched on Thu, 19 Jun 2014 UTC via a DNEPR launch vehicle from the Orenburg, Russia (OREN). Payload-class satellites include a variety of spacecraft equipped with specific instruments for various scientific and technological missions. These include communications satellites like Starlink; space stations such as the ISS; scientific satellites like the Hubble; Earth observation satellites from companies like Planet Labs, Umbra, and HawkEye 360; GPS; miniature CubeSats for education and research; and military/defense satellites.

Loading next visibility...
Identifier
40014, 2014-033E
Orbit
SSO
Country
Flag of ARAR / ARGN
Related business
Manufacturer
Satellogic SA
Mission
Operational Commercial Imaging
Bus & Motor
BUGSAT, Unknown motor
Mass
22 kg wet, 22 kg dry
Launch date (UTC)
2014-06-19 (12 years ago)
Launch vehicle
DNEPR
Launch site
Orenburg, Russia (OREN)
Object type
Payload
Rocket body
Debris
Shape & HBR
Box, 1.0 m
Radar Cross Section
0.263 m², Medium (>0.1 m² and < 1m²)

Expand to show TLE details & history
Last TLE update: 10 hours ago

TLE from 10 hours ago
0 BUGSAT 1
1 40014U 14033E   26264.26845187  .00004194  00000-0  21783-3 0  9993
2 40014  98.0423   2.4946 0026740 210.0025 149.9676 15.16416395670399
Epoch: 2026-09-21T06:26Z
TLE epoch observation values (Epoch: 2026-09-21T06:26:34.241Z)
Latitude
0.00002°
Longitude
-94.29879°
Altitude
535.726 km
Speed
7.586 km/s
True Right ascension
00h 09m 58s
True Declination
0° 00' 00"
Sunlit
Object was in full shadow at epoch
Visualization orbit readout
Latitude
Unknown
Longitude
Unknown
Altitude
Unknown
Speed
Unknown
Apparent Right ascension
Unknown
Apparent Declination
Unknown
Sunlit
N/A
Visualization observer readout
Local Sidereal Time
09:33:29
Azimuth
Unknown
Elevation
Unknown
Doppler factor
Unknown
Orbital elements
Apogee altitude
532.109 km
Perigee altitude
495.252 km
Semi-major axis
6,891.818 km
Eccentricity
0.00267
Inclination
98.0423°
RAAN
2.4946°
Arg. of periapsis
210.0025°
True anomaly
150.12052°
Mean anomaly
149.9676°
Eccentric anomaly
150.0441°
Mean motion
3.79352 °/min
Orbital period
94.9 mins
BSTAR
0.00021783
Loading maneuver chart data...
Computing Atmospheric mass density...
Loading historical data...
Loading historical data...
Loading historical data...
Loading historical data...
Loading historical data...
Loading historical data...
Loading historical data...

Documentation

Showing up to 5 results
|